Year,Month,Day,Hour,Minute,Value (Times are PST for temperature in C)
2015,09,26,00,00,9.60
2015,09,26,00,01,9.60
2015,09,26,00,02,9.60
2015,09,26,00,03,9.60
2015,09,26,00,04,9.60
2015,09,26,00,05,9.60
2015,09,26,00,06,9.60
2015,09,26,00,07,9.60
2015,09,26,00,08,9.60
2015,09,26,00,09,9.60
2015,09,26,00,10,9.60
2015,09,26,00,11,9.60
2015,09,26,00,12,9.60
2015,09,26,00,13,9.60
2015,09,26,00,14,9.60
2015,09,26,00,15,9.60
2015,09,26,00,16,9.60
2015,09,26,00,17,9.70
2015,09,26,00,18,9.70
2015,09,26,00,19,9.70
2015,09,26,00,20,9.70
2015,09,26,00,21,9.70
2015,09,26,00,22,9.60
2015,09,26,00,23,9.60
2015,09,26,00,24,9.60
2015,09,26,00,25,9.70
2015,09,26,00,26,9.70
2015,09,26,00,27,9.70
2015,09,26,00,28,9.70
2015,09,26,00,29,9.70
2015,09,26,00,30,9.70
2015,09,26,00,31,9.70
2015,09,26,00,32,9.70
2015,09,26,00,33,9.70
2015,09,26,00,34,9.70
2015,09,26,00,35,9.70
2015,09,26,00,36,9.70
2015,09,26,00,37,9.70
2015,09,26,00,38,9.70
2015,09,26,00,39,9.70
2015,09,26,00,40,9.70
2015,09,26,00,41,9.70
2015,09,26,00,42,9.70
2015,09,26,00,43,9.70
2015,09,26,00,44,9.70
2015,09,26,00,45,9.80
2015,09,26,00,46,9.80
2015,09,26,00,47,9.80
2015,09,26,00,48,9.80
2015,09,26,00,49,9.80
2015,09,26,00,50,9.90
2015,09,26,00,51,9.90
2015,09,26,00,52,10.00
2015,09,26,00,53,10.00
2015,09,26,00,54,10.10
2015,09,26,00,55,10.20
2015,09,26,00,56,10.30
2015,09,26,00,57,10.40
2015,09,26,00,58,10.50
2015,09,26,00,59,10.50
2015,09,26,01,00,10.60
2015,09,26,01,01,10.60
2015,09,26,01,02,10.70
2015,09,26,01,03,10.70
2015,09,26,01,04,10.70
2015,09,26,01,05,10.80
2015,09,26,01,06,10.80
2015,09,26,01,07,10.80
2015,09,26,01,08,10.80
2015,09,26,01,09,10.90
2015,09,26,01,10,10.90
2015,09,26,01,11,10.90
2015,09,26,01,12,10.90
2015,09,26,01,13,10.90
2015,09,26,01,14,10.90
2015,09,26,01,15,10.90
2015,09,26,01,16,11.00
2015,09,26,01,17,11.00
2015,09,26,01,18,11.00
2015,09,26,01,19,11.00
2015,09,26,01,20,11.00
2015,09,26,01,21,11.00
2015,09,26,01,22,11.10
2015,09,26,01,23,11.10
2015,09,26,01,24,11.10
2015,09,26,01,25,11.10
2015,09,26,01,26,11.10
2015,09,26,01,27,11.10
2015,09,26,01,28,11.10
2015,09,26,01,29,11.10
2015,09,26,01,30,11.10
2015,09,26,01,31,11.10
2015,09,26,01,32,11.20
2015,09,26,01,33,11.20
2015,09,26,01,34,11.20
2015,09,26,01,35,11.20
2015,09,26,01,36,11.20
2015,09,26,01,37,11.30
2015,09,26,01,38,11.30
2015,09,26,01,39,11.30
2015,09,26,01,40,11.40
2015,09,26,01,41,11.40
2015,09,26,01,42,11.40
2015,09,26,01,43,11.40
2015,09,26,01,44,11.40
2015,09,26,01,45,11.40
2015,09,26,01,46,11.50
2015,09,26,01,47,11.50
2015,09,26,01,48,11.50
2015,09,26,01,49,11.50
2015,09,26,01,50,11.50
2015,09,26,01,51,11.50
2015,09,26,01,52,11.50
2015,09,26,01,53,11.50
2015,09,26,01,54,11.50
2015,09,26,01,55,11.50
2015,09,26,01,56,11.50
2015,09,26,01,57,11.50
2015,09,26,01,58,11.50
2015,09,26,01,59,11.50
2015,09,26,02,00,11.50
2015,09,26,02,01,11.50
2015,09,26,02,02,11.50
2015,09,26,02,03,11.50
2015,09,26,02,04,11.40
2015,09,26,02,05,11.40
2015,09,26,02,06,11.40
2015,09,26,02,07,11.40
2015,09,26,02,08,11.50
2015,09,26,02,09,11.50
2015,09,26,02,10,11.50
2015,09,26,02,11,11.50
2015,09,26,02,12,11.50
2015,09,26,02,13,11.60
2015,09,26,02,14,11.60
2015,09,26,02,15,11.60
2015,09,26,02,16,11.60
2015,09,26,02,17,11.60
2015,09,26,02,18,11.70
2015,09,26,02,19,11.70
2015,09,26,02,20,11.70
2015,09,26,02,21,11.70
2015,09,26,02,22,11.70
2015,09,26,02,23,11.70
2015,09,26,02,24,11.60
2015,09,26,02,25,11.60
2015,09,26,02,26,11.60
2015,09,26,02,27,11.60
2015,09,26,02,28,11.60
2015,09,26,02,29,11.60
2015,09,26,02,30,11.60
2015,09,26,02,31,11.60
2015,09,26,02,32,11.60
2015,09,26,02,33,11.50
2015,09,26,02,34,11.50
2015,09,26,02,35,11.50
2015,09,26,02,36,11.50
2015,09,26,02,37,11.40
2015,09,26,02,38,11.40
2015,09,26,02,39,11.40
2015,09,26,02,40,11.40
2015,09,26,02,41,11.40
2015,09,26,02,42,11.30
2015,09,26,02,43,11.30
2015,09,26,02,44,11.30
2015,09,26,02,45,11.30
2015,09,26,02,46,11.30
2015,09,26,02,47,11.30
2015,09,26,02,48,11.30
2015,09,26,02,49,11.30
2015,09,26,02,50,11.30
2015,09,26,02,51,11.40
2015,09,26,02,52,11.40
2015,09,26,02,53,11.40
2015,09,26,02,54,11.40
2015,09,26,02,55,11.40
2015,09,26,02,56,11.30
2015,09,26,02,57,11.30
2015,09,26,02,58,11.30
2015,09,26,02,59,11.30
2015,09,26,03,00,11.30
2015,09,26,03,01,11.30
2015,09,26,03,02,11.30
2015,09,26,03,03,11.30
2015,09,26,04,02,11.10
2015,09,26,04,03,11.10
2015,09,26,04,04,11.10
2015,09,26,04,05,11.10
2015,09,26,04,06,11.10
2015,09,26,04,07,11.10
2015,09,26,04,08,11.10
2015,09,26,04,09,11.10
2015,09,26,04,10,11.10
2015,09,26,04,11,11.10
2015,09,26,04,12,11.10
2015,09,26,04,13,11.10
2015,09,26,04,14,11.10
2015,09,26,04,15,11.00
2015,09,26,04,16,11.00
2015,09,26,04,17,11.00
2015,09,26,04,18,11.00
2015,09,26,04,19,11.00
2015,09,26,04,20,11.00
2015,09,26,04,21,11.00
2015,09,26,04,22,11.00
2015,09,26,04,23,11.00
2015,09,26,04,24,11.00
2015,09,26,04,25,11.00
2015,09,26,04,26,11.00
2015,09,26,04,27,11.00
2015,09,26,04,28,10.90
2015,09,26,04,29,10.90
2015,09,26,04,30,10.90
2015,09,26,04,31,10.90
2015,09,26,04,32,10.90
2015,09,26,04,33,10.90
2015,09,26,04,34,10.90
2015,09,26,04,35,10.90
2015,09,26,04,36,10.90
2015,09,26,04,37,10.90
2015,09,26,04,38,10.90
2015,09,26,04,39,10.90
2015,09,26,04,40,10.90
2015,09,26,04,41,10.90
2015,09,26,04,42,10.80
2015,09,26,04,43,10.80
2015,09,26,04,44,10.80
2015,09,26,04,45,10.80
2015,09,26,04,46,10.80
2015,09,26,04,47,10.80
2015,09,26,04,48,10.80
2015,09,26,04,49,10.80
2015,09,26,04,50,10.80
2015,09,26,04,51,10.80
2015,09,26,04,52,10.80
2015,09,26,04,53,10.80
2015,09,26,04,54,10.80
2015,09,26,04,55,10.70
2015,09,26,04,56,10.70
2015,09,26,04,57,10.70
2015,09,26,04,58,10.70
2015,09,26,04,59,10.70
2015,09,26,05,00,10.70
2015,09,26,05,01,10.70
2015,09,26,05,02,10.60
2015,09,26,05,03,10.60
2015,09,26,05,04,10.60
2015,09,26,05,05,10.60
2015,09,26,05,06,10.60
2015,09,26,05,07,10.60
2015,09,26,05,08,10.60
2015,09,26,05,09,10.60
2015,09,26,05,10,10.70
2015,09,26,05,11,10.70
2015,09,26,05,12,10.70
2015,09,26,05,13,10.70
2015,09,26,05,14,10.70
2015,09,26,05,15,10.70
2015,09,26,05,16,10.80
2015,09,26,05,17,10.80
2015,09,26,05,18,10.80
2015,09,26,05,19,10.80
2015,09,26,05,20,10.80
2015,09,26,05,21,10.80
2015,09,26,05,22,10.80
2015,09,26,05,23,10.80
2015,09,26,05,24,10.70
2015,09,26,05,25,10.70
2015,09,26,05,26,10.70
2015,09,26,05,27,10.70
2015,09,26,05,28,10.70
2015,09,26,05,29,10.70
2015,09,26,05,30,10.70
2015,09,26,05,31,10.70
2015,09,26,05,32,10.70
2015,09,26,05,33,10.70
2015,09,26,05,34,10.70
2015,09,26,05,35,10.70
2015,09,26,05,36,10.70
2015,09,26,05,37,10.70
2015,09,26,05,38,10.70
2015,09,26,05,39,10.70
2015,09,26,05,40,10.70
2015,09,26,05,41,10.60
2015,09,26,05,42,10.60
2015,09,26,05,43,10.60
2015,09,26,05,44,10.60
2015,09,26,05,45,10.60
2015,09,26,05,46,10.60
2015,09,26,05,47,10.60
2015,09,26,05,48,10.60
2015,09,26,05,49,10.60
2015,09,26,05,50,10.60
2015,09,26,05,51,10.50
2015,09,26,05,52,10.50
2015,09,26,05,53,10.50
2015,09,26,05,54,10.50
2015,09,26,05,55,10.50
2015,09,26,05,56,10.50
2015,09,26,05,57,10.50
2015,09,26,05,58,10.50
2015,09,26,05,59,10.50
2015,09,26,06,00,10.50
2015,09,26,06,01,10.50
2015,09,26,06,02,10.40
2015,09,26,06,03,10.40
2015,09,26,06,04,10.40
2015,09,26,06,05,10.40
2015,09,26,06,06,10.40
2015,09,26,06,07,10.40
2015,09,26,06,08,10.30
2015,09,26,06,09,10.30
2015,09,26,06,10,10.30
2015,09,26,06,11,10.30
2015,09,26,06,12,10.20
2015,09,26,06,13,10.20
2015,09,26,06,14,10.20
2015,09,26,06,15,10.10
2015,09,26,06,16,10.10
2015,09,26,06,17,10.10
2015,09,26,06,18,10.10
2015,09,26,06,19,10.10
2015,09,26,06,20,10.00
2015,09,26,06,21,10.00
2015,09,26,06,22,10.00
2015,09,26,06,23,9.90
2015,09,26,06,24,9.90
2015,09,26,06,25,9.90
2015,09,26,06,26,9.90
2015,09,26,06,27,9.90
2015,09,26,06,28,9.90
2015,09,26,06,29,9.90
2015,09,26,06,30,10.00
2015,09,26,06,31,10.00
2015,09,26,06,32,10.00
2015,09,26,06,33,10.00
2015,09,26,06,34,10.00
2015,09,26,06,35,10.00
2015,09,26,06,36,10.10
2015,09,26,06,37,10.10
2015,09,26,06,38,10.10
2015,09,26,06,39,10.00
2015,09,26,06,40,10.00
2015,09,26,06,41,10.00
2015,09,26,06,42,9.90
2015,09,26,06,43,9.90
2015,09,26,06,44,9.90
2015,09,26,06,45,9.80
2015,09,26,06,46,9.80
2015,09,26,06,47,9.70
2015,09,26,06,48,9.70
2015,09,26,06,49,9.70
2015,09,26,06,50,9.70
2015,09,26,06,51,9.70
2015,09,26,06,52,9.70
2015,09,26,06,53,9.70
2015,09,26,06,54,9.60
2015,09,26,06,55,9.60
2015,09,26,06,56,9.60
2015,09,26,06,57,9.60
2015,09,26,06,58,9.50
2015,09,26,06,59,9.50
2015,09,26,07,00,9.40
2015,09,26,07,01,9.40
2015,09,26,07,02,9.40
2015,09,26,07,03,9.40
2015,09,26,07,04,9.30
2015,09,26,07,05,9.30
2015,09,26,07,06,9.30
2015,09,26,07,07,9.30
2015,09,26,07,08,9.30
2015,09,26,07,09,9.30
2015,09,26,07,10,9.30
2015,09,26,07,11,9.30
2015,09,26,07,12,9.20
2015,09,26,07,13,9.20
2015,09,26,07,14,9.20
2015,09,26,07,15,9.20
2015,09,26,07,16,9.20
2015,09,26,07,17,9.20
2015,09,26,07,18,9.20
2015,09,26,07,19,9.20
2015,09,26,07,20,9.20
2015,09,26,07,21,9.20
2015,09,26,07,22,9.20
2015,09,26,07,23,9.20
2015,09,26,07,24,9.20
2015,09,26,07,25,9.20
2015,09,26,07,26,9.20
2015,09,26,07,27,9.20
2015,09,26,07,28,9.20
2015,09,26,07,29,9.20
2015,09,26,07,30,9.20
2015,09,26,07,31,9.10
2015,09,26,07,32,9.10
2015,09,26,07,33,9.10
2015,09,26,07,34,9.10
2015,09,26,07,35,9.10
2015,09,26,07,36,9.10
2015,09,26,07,37,9.10
2015,09,26,07,38,9.10
2015,09,26,07,39,9.00
2015,09,26,07,40,9.00
2015,09,26,07,41,9.00
2015,09,26,07,42,9.00
2015,09,26,07,43,9.00
2015,09,26,07,44,9.00
2015,09,26,07,45,9.00
2015,09,26,07,46,9.00
2015,09,26,07,47,9.00
2015,09,26,07,48,9.00
2015,09,26,07,49,9.00
2015,09,26,07,50,9.00
2015,09,26,07,51,9.10
2015,09,26,07,52,9.10
2015,09,26,07,53,9.10
2015,09,26,07,54,9.10
2015,09,26,07,55,9.10
2015,09,26,07,56,9.10
2015,09,26,07,57,9.20
2015,09,26,07,58,9.20
2015,09,26,07,59,9.20
2015,09,26,08,00,9.20
2015,09,26,08,01,9.20
2015,09,26,08,02,9.20
2015,09,26,08,03,9.20
2015,09,26,08,04,9.20
2015,09,26,08,05,9.20
2015,09,26,08,06,9.20
2015,09,26,08,07,9.20
2015,09,26,08,08,9.20
2015,09,26,08,09,9.20
2015,09,26,08,10,9.20
2015,09,26,08,11,9.30
2015,09,26,08,12,9.30
2015,09,26,08,13,9.30
2015,09,26,08,14,9.30
2015,09,26,08,15,9.30
2015,09,26,08,16,9.30
2015,09,26,08,17,9.40
2015,09,26,08,18,9.40
2015,09,26,08,19,9.40
2015,09,26,08,20,9.40
2015,09,26,08,21,9.50
2015,09,26,08,22,9.50
2015,09,26,08,23,9.50
2015,09,26,08,24,9.60
2015,09,26,08,25,9.60
2015,09,26,08,26,9.60
2015,09,26,08,27,9.60
2015,09,26,08,28,9.70
2015,09,26,08,29,9.70
2015,09,26,08,30,9.70
2015,09,26,08,31,9.80
2015,09,26,08,32,9.80
2015,09,26,08,33,9.80
2015,09,26,08,34,9.90
2015,09,26,08,35,9.90
2015,09,26,08,36,10.00
2015,09,26,08,37,10.10
2015,09,26,08,38,10.10
2015,09,26,08,39,10.10
2015,09,26,08,40,10.20
2015,09,26,08,41,10.20
2015,09,26,08,42,10.30
2015,09,26,08,43,10.30
2015,09,26,08,44,10.30
2015,09,26,08,45,10.40
2015,09,26,08,46,10.40
2015,09,26,08,47,10.40
2015,09,26,08,48,10.50
2015,09,26,08,49,10.50
2015,09,26,08,50,10.50
2015,09,26,08,51,10.60
2015,09,26,08,52,10.60
2015,09,26,08,53,10.60
2015,09,26,08,54,10.70
2015,09,26,08,55,10.70
2015,09,26,08,56,10.70
2015,09,26,08,57,10.80
2015,09,26,08,58,10.80
2015,09,26,08,59,10.80
2015,09,26,09,00,10.90
2015,09,26,09,01,10.90
2015,09,26,09,02,10.90
2015,09,26,09,03,10.90
2015,09,26,09,04,11.00
2015,09,26,09,05,11.00
2015,09,26,09,06,11.10
2015,09,26,09,07,11.10
2015,09,26,09,08,11.10
2015,09,26,09,09,11.20
2015,09,26,09,10,11.20
2015,09,26,09,11,11.20
2015,09,26,09,12,11.30
2015,09,26,09,13,11.30
2015,09,26,09,14,11.30
2015,09,26,09,15,11.30
2015,09,26,09,16,11.40
2015,09,26,09,17,11.40
2015,09,26,09,18,11.50
2015,09,26,09,19,11.50
2015,09,26,09,20,11.60
2015,09,26,09,21,11.60
2015,09,26,09,22,11.60
2015,09,26,09,23,11.60
2015,09,26,09,24,11.70
2015,09,26,09,25,11.70
2015,09,26,09,26,11.80
2015,09,26,09,27,11.80
2015,09,26,09,28,11.80
2015,09,26,09,29,11.90
2015,09,26,09,30,12.00
2015,09,26,09,31,12.00
2015,09,26,09,32,12.10
2015,09,26,09,33,12.10
2015,09,26,09,34,12.10
2015,09,26,09,35,12.20
2015,09,26,09,36,12.20
2015,09,26,09,37,12.20
2015,09,26,09,38,12.20
2015,09,26,09,39,12.30
2015,09,26,09,40,12.30
2015,09,26,09,41,12.30
2015,09,26,09,42,12.30
2015,09,26,09,43,12.40
2015,09,26,09,44,12.40
2015,09,26,09,45,12.40
2015,09,26,09,46,12.50
2015,09,26,09,47,12.50
2015,09,26,09,48,12.50
2015,09,26,09,49,12.60
2015,09,26,09,50,12.60
2015,09,26,09,51,12.60
2015,09,26,09,52,12.60
2015,09,26,09,53,12.70
2015,09,26,09,54,12.70
2015,09,26,09,55,12.70
2015,09,26,09,56,12.80
2015,09,26,09,57,12.80
2015,09,26,09,58,12.80
2015,09,26,09,59,12.80
2015,09,26,10,00,12.80
2015,09,26,10,01,12.80
2015,09,26,10,02,12.90
2015,09,26,10,03,12.90
2015,09,26,10,04,13.00
2015,09,26,10,05,13.00
2015,09,26,10,06,13.10
2015,09,26,10,07,13.10
2015,09,26,10,08,13.10
2015,09,26,10,09,13.10
2015,09,26,10,10,13.10
2015,09,26,10,11,13.10
2015,09,26,10,12,13.20
2015,09,26,10,13,13.20
2015,09,26,10,14,13.20
2015,09,26,10,15,13.30
2015,09,26,10,16,13.30
2015,09,26,10,17,13.30
2015,09,26,10,18,13.30
2015,09,26,10,19,13.30
2015,09,26,10,20,13.30
2015,09,26,10,21,13.30
2015,09,26,10,22,13.30
2015,09,26,10,23,13.40
2015,09,26,10,24,13.40
2015,09,26,10,25,13.40
2015,09,26,10,26,13.40
2015,09,26,10,27,13.50
2015,09,26,10,28,13.50
2015,09,26,10,29,13.60
2015,09,26,10,30,13.60
2015,09,26,10,31,13.60
2015,09,26,10,32,13.60
2015,09,26,10,33,13.60
2015,09,26,10,34,13.70
2015,09,26,10,35,13.70
2015,09,26,10,36,13.70
2015,09,26,10,37,13.70
2015,09,26,10,38,13.70
2015,09,26,10,39,13.70
2015,09,26,10,40,13.70
2015,09,26,10,41,13.80
2015,09,26,10,42,13.80
2015,09,26,10,43,13.80
2015,09,26,10,44,13.80
2015,09,26,10,45,13.80
2015,09,26,10,46,13.80
2015,09,26,10,47,13.80
2015,09,26,10,48,13.90
2015,09,26,10,49,13.90
2015,09,26,10,50,13.90
2015,09,26,10,51,13.90
2015,09,26,10,52,14.00
2015,09,26,10,53,13.90
2015,09,26,10,54,13.90
2015,09,26,10,55,13.80
2015,09,26,10,56,13.70
2015,09,26,10,57,13.70
2015,09,26,10,58,13.70
2015,09,26,10,59,13.80
2015,09,26,11,00,13.80
2015,09,26,11,01,13.90
2015,09,26,11,02,14.00
2015,09,26,11,03,14.10
2015,09,26,11,04,14.10
2015,09,26,11,05,14.10
2015,09,26,11,06,14.10
2015,09,26,11,07,14.10
2015,09,26,11,08,14.00
2015,09,26,11,09,14.00
2015,09,26,11,10,14.00
2015,09,26,11,11,13.90
2015,09,26,11,12,13.90
2015,09,26,11,13,13.90
2015,09,26,11,14,13.90
2015,09,26,11,15,13.90
2015,09,26,11,16,14.00
2015,09,26,11,17,14.10
2015,09,26,11,18,14.10
2015,09,26,11,19,14.10
2015,09,26,11,20,14.10
2015,09,26,11,21,14.10
2015,09,26,11,22,14.10
2015,09,26,11,23,14.10
2015,09,26,11,24,14.10
2015,09,26,11,25,14.10
2015,09,26,11,26,14.00
2015,09,26,11,27,14.00
2015,09,26,11,28,13.90
2015,09,26,11,29,13.90
2015,09,26,11,30,13.90
2015,09,26,11,31,13.90
2015,09,26,11,32,13.90
2015,09,26,11,33,13.90
2015,09,26,11,34,13.90
2015,09,26,11,35,13.80
2015,09,26,11,36,13.80
2015,09,26,11,37,13.80
2015,09,26,11,38,13.80
2015,09,26,11,39,13.80
2015,09,26,11,40,13.80
2015,09,26,11,41,13.80
2015,09,26,11,42,13.80
2015,09,26,11,43,13.80
2015,09,26,11,44,13.90
2015,09,26,11,45,13.90
2015,09,26,11,46,13.90
2015,09,26,11,47,13.90
2015,09,26,11,48,13.80
2015,09,26,11,49,13.80
2015,09,26,11,50,13.80
2015,09,26,11,51,13.90
2015,09,26,11,52,13.90
2015,09,26,11,53,13.90
2015,09,26,11,54,14.00
2015,09,26,11,55,14.00
2015,09,26,11,56,14.00
2015,09,26,11,57,14.00
2015,09,26,11,58,14.10
2015,09,26,11,59,14.10
2015,09,26,12,00,14.10
2015,09,26,12,01,14.10
2015,09,26,12,02,14.20
2015,09,26,12,03,14.20
2015,09,26,12,04,14.20
2015,09,26,12,05,14.20
2015,09,26,12,06,14.10
2015,09,26,12,07,14.20
2015,09,26,12,08,14.20
2015,09,26,12,09,14.20
2015,09,26,12,10,14.20
2015,09,26,12,11,14.20
2015,09,26,12,12,14.20
2015,09,26,12,13,14.20
2015,09,26,12,14,14.20
2015,09,26,12,15,14.10
2015,09,26,12,16,14.10
2015,09,26,12,17,14.10
2015,09,26,12,18,14.10
2015,09,26,12,19,14.10
2015,09,26,12,20,14.20
2015,09,26,12,21,14.20
2015,09,26,12,22,14.20
2015,09,26,12,23,14.30
2015,09,26,12,24,14.30
2015,09,26,12,25,14.30
2015,09,26,12,26,14.30
2015,09,26,12,27,14.20
2015,09,26,12,28,14.20
2015,09,26,12,29,14.20
2015,09,26,12,30,14.20
2015,09,26,12,31,14.30
2015,09,26,12,32,14.30
2015,09,26,12,33,14.20
2015,09,26,12,34,14.30
2015,09,26,12,35,14.30
2015,09,26,12,36,14.30
2015,09,26,12,37,14.30
2015,09,26,12,38,14.30
2015,09,26,12,39,14.30
2015,09,26,12,40,14.30
2015,09,26,12,41,14.30
2015,09,26,12,42,14.30
2015,09,26,12,43,14.40
2015,09,26,12,44,14.40
2015,09,26,12,45,14.40
2015,09,26,12,46,14.50
2015,09,26,12,47,14.50
2015,09,26,12,48,14.60
2015,09,26,12,49,14.60
2015,09,26,12,50,14.70
2015,09,26,12,51,14.70
2015,09,26,12,52,14.70
2015,09,26,12,53,14.70
2015,09,26,12,54,14.70
2015,09,26,12,55,14.60
2015,09,26,12,56,14.60
2015,09,26,12,57,14.60
2015,09,26,12,58,14.70
2015,09,26,12,59,14.70
2015,09,26,13,00,14.70
2015,09,26,13,01,14.70
2015,09,26,13,02,14.70
2015,09,26,13,03,14.70
2015,09,26,13,04,14.70
2015,09,26,13,05,14.70
2015,09,26,13,06,14.70
2015,09,26,13,07,14.70
2015,09,26,13,08,14.70
2015,09,26,13,09,14.70
2015,09,26,13,10,14.70
2015,09,26,13,11,14.70
2015,09,26,13,12,14.60
2015,09,26,13,13,14.60
2015,09,26,13,14,14.60
2015,09,26,13,15,14.60
2015,09,26,13,16,14.60
2015,09,26,13,17,14.60
2015,09,26,13,18,14.60
2015,09,26,13,19,14.60
2015,09,26,13,20,14.60
2015,09,26,13,21,14.60
2015,09,26,13,22,14.60
2015,09,26,13,23,14.60
2015,09,26,13,24,14.70
2015,09,26,13,25,14.70
2015,09,26,13,26,14.80
2015,09,26,13,27,14.80
2015,09,26,13,28,14.80
2015,09,26,13,29,14.90
2015,09,26,13,30,14.90
2015,09,26,13,31,14.90
2015,09,26,13,32,14.90
2015,09,26,13,33,14.90
2015,09,26,13,34,14.90
2015,09,26,13,35,14.90
2015,09,26,13,36,14.90
2015,09,26,13,37,15.00
2015,09,26,13,38,15.00
2015,09,26,13,39,15.00
2015,09,26,13,40,15.00
2015,09,26,13,41,15.10
2015,09,26,13,42,15.00
2015,09,26,13,43,15.00
2015,09,26,13,44,15.00
2015,09,26,13,45,15.00
2015,09,26,13,46,15.10
2015,09,26,13,47,15.10
2015,09,26,13,48,15.10
2015,09,26,13,49,15.10
2015,09,26,13,50,15.10
2015,09,26,13,51,15.10
2015,09,26,13,52,15.00
2015,09,26,13,53,15.00
2015,09,26,13,54,15.00
2015,09,26,13,55,14.90
2015,09,26,13,56,14.90
2015,09,26,13,57,14.90
2015,09,26,13,58,14.90
2015,09,26,13,59,14.90
2015,09,26,14,00,14.90
2015,09,26,14,01,15.00
2015,09,26,14,02,15.00
2015,09,26,14,03,15.10
2015,09,26,14,04,15.00
2015,09,26,14,05,15.00
2015,09,26,14,06,15.00
2015,09,26,14,07,15.00
2015,09,26,14,08,15.10
2015,09,26,14,09,15.10
2015,09,26,14,10,15.10
2015,09,26,14,11,15.10
2015,09,26,14,12,15.20
2015,09,26,14,13,15.20
2015,09,26,14,14,15.20
2015,09,26,14,15,15.20
2015,09,26,14,16,15.20
2015,09,26,14,17,15.20
2015,09,26,14,18,15.20
2015,09,26,14,19,15.20
2015,09,26,14,20,15.20
2015,09,26,14,21,15.20
2015,09,26,14,22,15.20
2015,09,26,14,23,15.20
2015,09,26,14,24,15.20
2015,09,26,14,25,15.20
2015,09,26,14,26,15.20
2015,09,26,14,27,15.20
2015,09,26,14,28,15.20
2015,09,26,14,29,15.20
2015,09,26,14,30,15.30
2015,09,26,14,31,15.40
2015,09,26,14,32,15.40
2015,09,26,14,33,15.50
2015,09,26,14,34,15.60
2015,09,26,14,35,15.60
2015,09,26,14,36,15.60
2015,09,26,14,37,15.60
2015,09,26,14,38,15.60
2015,09,26,14,39,15.60
2015,09,26,14,40,15.50
2015,09,26,14,41,15.50
2015,09,26,14,42,15.50
2015,09,26,14,43,15.50
2015,09,26,14,44,15.50
2015,09,26,14,45,15.50
2015,09,26,14,46,15.50
2015,09,26,14,47,15.50
2015,09,26,14,48,15.50
2015,09,26,14,49,15.50
2015,09,26,14,50,15.40
2015,09,26,14,51,15.40
2015,09,26,14,52,15.40
2015,09,26,14,53,15.40
2015,09,26,14,54,15.40
2015,09,26,14,55,15.40
2015,09,26,14,56,15.40
2015,09,26,14,57,15.40
2015,09,26,14,58,15.30
2015,09,26,14,59,15.30
2015,09,26,15,00,15.20
2015,09,26,15,01,15.20
2015,09,26,15,02,15.20
2015,09,26,15,03,15.30
2015,09,26,15,04,15.30
2015,09,26,15,05,15.30
2015,09,26,15,06,15.30
2015,09,26,15,07,15.30
2015,09,26,15,08,15.30
2015,09,26,15,09,15.30
2015,09,26,15,10,15.30
2015,09,26,15,11,15.30
2015,09,26,15,12,15.30
2015,09,26,15,13,15.30
2015,09,26,15,14,15.30
2015,09,26,15,15,15.30
2015,09,26,15,16,15.40
2015,09,26,15,17,15.40
2015,09,26,15,18,15.50
2015,09,26,15,19,15.50
2015,09,26,15,20,15.50
2015,09,26,15,21,15.50
2015,09,26,15,22,15.60
2015,09,26,15,23,15.60
2015,09,26,15,24,15.70
2015,09,26,15,25,15.70
2015,09,26,15,26,15.70
2015,09,26,15,27,15.80
2015,09,26,15,28,15.80
2015,09,26,15,29,15.80
2015,09,26,15,30,15.80
2015,09,26,15,31,15.80
2015,09,26,15,32,15.80
2015,09,26,15,33,15.80
2015,09,26,15,34,15.80
2015,09,26,15,35,15.80
2015,09,26,15,36,15.80
2015,09,26,15,37,15.80
2015,09,26,15,38,15.70
2015,09,26,15,39,15.70
2015,09,26,15,40,15.70
2015,09,26,15,41,15.70
2015,09,26,15,42,15.70
2015,09,26,15,43,15.70
2015,09,26,15,44,15.70
2015,09,26,15,45,15.80
2015,09,26,15,46,15.80
2015,09,26,15,47,15.80
2015,09,26,15,48,15.80
2015,09,26,15,49,15.80
2015,09,26,15,50,15.90
2015,09,26,15,51,16.00
2015,09,26,15,52,16.00
2015,09,26,15,53,16.10
2015,09,26,15,54,16.10
2015,09,26,15,55,16.10
2015,09,26,15,56,16.00
2015,09,26,15,57,16.00
2015,09,26,15,58,15.90
2015,09,26,15,59,15.90
2015,09,26,16,00,15.90
2015,09,26,16,01,15.90
2015,09,26,16,02,15.90
2015,09,26,16,03,15.80
2015,09,26,16,04,15.80
2015,09,26,16,05,15.80
2015,09,26,16,06,15.80
2015,09,26,16,07,15.70
2015,09,26,16,08,15.70
2015,09,26,16,09,15.70
2015,09,26,16,10,15.70
2015,09,26,16,11,15.60
2015,09,26,16,12,15.60
2015,09,26,16,13,15.60
2015,09,26,16,14,15.50
2015,09,26,16,15,15.50
2015,09,26,16,16,15.40
2015,09,26,16,17,15.40
2015,09,26,16,18,15.40
2015,09,26,16,19,15.40
2015,09,26,16,20,15.30
2015,09,26,16,21,15.30
2015,09,26,16,22,15.30
2015,09,26,16,23,15.30
2015,09,26,16,24,15.30
2015,09,26,16,25,15.30
2015,09,26,16,26,15.20
2015,09,26,16,27,15.20
2015,09,26,16,28,15.20
2015,09,26,16,29,15.10
2015,09,26,16,30,15.10
2015,09,26,16,31,15.10
2015,09,26,16,32,15.20
2015,09,26,16,33,15.20
2015,09,26,16,34,15.30
2015,09,26,16,35,15.40
2015,09,26,16,36,15.40
2015,09,26,16,37,15.50
2015,09,26,16,38,15.60
2015,09,26,16,39,15.70
2015,09,26,16,40,15.70
2015,09,26,16,41,15.70
2015,09,26,16,42,15.70
2015,09,26,16,43,15.70
2015,09,26,16,44,15.60
2015,09,26,16,45,15.60
2015,09,26,16,46,15.60
2015,09,26,16,47,15.60
2015,09,26,16,48,15.60
2015,09,26,16,49,15.60
2015,09,26,16,50,15.60
2015,09,26,16,51,15.70
2015,09,26,16,52,15.70
2015,09,26,16,53,15.80
2015,09,26,16,54,15.80
2015,09,26,16,55,15.90
2015,09,26,16,56,15.90
2015,09,26,16,57,15.90
2015,09,26,16,58,15.90
2015,09,26,16,59,15.90
2015,09,26,17,00,15.90
2015,09,26,17,01,15.90
2015,09,26,17,02,15.90
2015,09,26,17,03,15.90
2015,09,26,17,04,15.90
2015,09,26,17,05,15.90
2015,09,26,17,06,15.90
2015,09,26,17,07,15.90
2015,09,26,17,08,15.90
2015,09,26,17,09,15.90
2015,09,26,17,10,15.90
2015,09,26,17,11,15.90
2015,09,26,17,12,15.90
2015,09,26,17,13,15.90
2015,09,26,17,14,15.90
2015,09,26,17,15,15.90
2015,09,26,17,16,15.90
2015,09,26,17,17,16.00
2015,09,26,17,18,15.90
2015,09,26,17,19,15.90
2015,09,26,17,20,15.90
2015,09,26,17,21,15.90
2015,09,26,17,22,15.90
2015,09,26,17,23,15.90
2015,09,26,17,24,15.90
2015,09,26,17,25,16.00
2015,09,26,17,26,16.00
2015,09,26,17,27,16.00
2015,09,26,17,28,16.00
2015,09,26,17,29,16.00
2015,09,26,17,30,15.90
2015,09,26,17,31,15.90
2015,09,26,17,32,15.90
2015,09,26,17,33,15.90
2015,09,26,17,34,15.90
2015,09,26,17,35,15.90
2015,09,26,17,36,15.90
2015,09,26,17,37,15.90
2015,09,26,17,38,15.90
2015,09,26,17,39,15.80
2015,09,26,17,40,15.80
2015,09,26,17,41,15.80
2015,09,26,17,42,15.80
2015,09,26,17,43,15.80
2015,09,26,17,44,15.80
2015,09,26,17,45,15.80
2015,09,26,17,46,15.80
2015,09,26,17,47,15.80
2015,09,26,17,48,15.80
2015,09,26,17,49,15.80
2015,09,26,17,50,15.70
2015,09,26,17,51,15.70
2015,09,26,17,52,15.70
2015,09,26,17,53,15.70
2015,09,26,17,54,15.60
2015,09,26,17,55,15.60
2015,09,26,17,56,15.50
2015,09,26,17,57,15.50
2015,09,26,17,58,15.40
2015,09,26,17,59,15.40
2015,09,26,18,00,15.40
2015,09,26,18,01,15.30
2015,09,26,18,02,15.30
2015,09,26,18,03,15.30
2015,09,26,18,04,15.30
2015,09,26,18,05,15.30
2015,09,26,18,06,15.20
2015,09,26,18,07,15.20
2015,09,26,18,08,15.10
2015,09,26,18,09,15.10
2015,09,26,18,10,15.00
2015,09,26,18,11,15.00
2015,09,26,18,12,14.90
2015,09,26,18,13,14.90
2015,09,26,18,14,14.90
2015,09,26,18,15,14.90
2015,09,26,18,16,14.90
2015,09,26,18,17,14.90
2015,09,26,18,18,14.90
2015,09,26,18,19,14.90
2015,09,26,18,20,14.90
2015,09,26,18,21,14.90
2015,09,26,18,22,14.90
2015,09,26,18,23,14.90
2015,09,26,18,24,15.00